Flag for U.S.A. Weather past 2 weeks in Mason, Ohio, U.S.A.

Now
64 °F

Fog.


Feels Like: 64 °F
Forecast: 67 / 87 °F
Wind: No wind

Location: Butler County Regional Airport

Current Time: Sep 5, 2015 at 7:17:14 AM

Latest Report: Sep 5, 2015 at 6:53 AM


Visibility: 2 mi

Pressure: 30.14 "Hg

Humidity: 97%

Dew point: 63 °F

Location of MasonLocation

Historic Weather in Mason — Graph

°F

Mason temperature yesterday

Maximum temperature yesterday: 94 °F (at 4:53 PM)
Minimum temperature yesterday: 67 °F (at 6:53 AM)
Average temperature yesterday: 77 °F

Past Weeks' High & Low Weather Summary

 TemperatureHumidityPressure
High94 °F (Sep 4, 4:53 PM)100% (Sep 5, 4:53 AM)30.21 "Hg (Sep 5, 4:53 AM)
Low51 °F (Aug 25, 6:53 AM)35% (Aug 21, 5:53 PM)29.87 "Hg (Aug 23, 7:53 PM)
Average71 °F75%30.07 "Hg
* Reported Aug 21 5:53 AM — Sep 5 5:53 AM, Mason, Weather by CustomWeather, © 2015

Note: Actual official high and low records may vary slightly from our data, if they occured in-between our weather recording intervals... More about our weather records

Advertising

Mason weather history for previous 24 hours

 ConditionsComfort  
Time TempWeatherWind HumidityBarometerVisibility
5:53 AM
Sat, Sep 5
64 °FFog.No wind97%30.12 "Hg5 mi
4:53 AM64 °FFog.No wind100%30.10 "Hg5 mi
3:53 AM65 °FFog.No wind97%30.08 "Hg4 mi
2:53 AM66 °FFog.No wind96%30.07 "Hg4 mi
1:53 AM67 °FClear.No wind97%30.08 "Hg7 mi
12:53 AM66 °FClear.No wind96%30.09 "Hg9 mi
11:53 PM
Fri, Sep 4
67 °FClear.3 mph97%30.09 "Hg8 mi
10:53 PM69 °FClear.3 mph90%30.09 "Hg10 mi
9:53 PM70 °FLight rain. Passing clouds.3 mph87%30.09 "Hg10 mi
8:53 PM69 °FThundershowers. Broken clouds.3 mph93%30.13 "Hg8 mi
7:53 PM73 °FHeavy rain. Mostly cloudy.14 mph79%30.13 "Hg7 mi
6:53 PM74 °FThundershowers. Broken clouds.9 mph88%30.06 "Hg10 mi
6:00 PM81 °FThunderstorms. Partly sunny.16 mph56%30.06 "Hg10 mi
4:53 PM94 °FPassing clouds.5 mph41%29.98 "Hg10 mi
3:53 PM93 °FSunny.7 mph41%30.00 "Hg10 mi
2:53 PM93 °FSunny.3 mph42%30.01 "Hg10 mi
1:53 PM93 °FScattered clouds.5 mph42%30.02 "Hg10 mi
12:53 PM91 °FSunny.6 mph45%30.04 "Hg10 mi
11:53 AM88 °FSunny.3 mph54%30.04 "Hg10 mi
10:53 AM84 °FSunny.3 mph61%30.04 "Hg9 mi
9:53 AM81 °FScattered clouds.No wind69%30.04 "Hg7 mi
8:53 AM74 °FFog.No wind88%30.03 "Hg4 mi
7:53 AM68 °FFog.No wind96%30.03 "Hg2 mi
Weather by CustomWeather, © 2015

See weather overviewHow to use our weather pages